| time (UTC) | temp F | wind direction | speed MPH | gust MPH | rain 1hr in | rain 24hr in | rain mn in | humidity % | barometer mb |
| 20260509024152 | 59 | 310 | 3.0 | 7.0 | 0.00 | 0.00 | 0.00 | 74 | 1018.6 |
| 20260509023650 | 59 | 316 | 4.0 | 7.0 | 0.00 | 0.00 | 0.00 | 74 | 1018.6 |
| 20260509023150 | 59 | 299 | 4.0 | 7.0 | 0.00 | 0.00 | 0.00 | 74 | 1018.6 |
| 20260509022651 | 59 | 322 | 5.0 | 8.0 | 0.00 | 0.00 | 0.00 | 73 | 1018.6 |
| 20260509022150 | 59 | 309 | 5.0 | 8.0 | 0.00 | 0.00 | 0.00 | 73 | 1018.7 |
| 20260509021650 | 59 | 301 | 4.0 | 8.0 | 0.00 | 0.00 | 0.00 | 73 | 1018.7 |
| 20260509021150 | 59 | 284 | 4.0 | 8.0 | 0.00 | 0.00 | 0.00 | 73 | 1018.7 |
| 20260509020650 | 59 | 294 | 6.0 | 7.0 | 0.00 | 0.00 | 0.00 | 73 | 1018.7 |
| 20260509020150 | 60 | 292 | 4.0 | 7.0 | 0.00 | 0.00 | 0.00 | 73 | 1018.7 |
| 20260509015150 | 60 | 295 | 3.0 | 8.0 | 0.00 | 0.00 | 0.00 | 72 | 1018.6 |
| 20260509014649 | 60 | 310 | 4.0 | 8.0 | 0.00 | 0.00 | 0.00 | 73 | 1018.7 |
| 20260509013649 | 60 | 299 | 5.0 | 7.0 | 0.00 | 0.00 | 0.00 | 72 | 1018.6 |
| 20260509013150 | 60 | 303 | 4.0 | 7.0 | 0.00 | 0.00 | 0.00 | 72 | 1018.7 |
| 20260509012651 | 60 | 291 | 5.0 | 7.0 | 0.00 | 0.00 | 0.00 | 72 | 1018.6 |
| 20260509012149 | 60 | 291 | 6.0 | 7.0 | 0.00 | 0.00 | 0.00 | 72 | 1018.7 |
| 20260509011649 | 60 | 320 | 4.0 | 7.0 | 0.00 | 0.00 | 0.00 | 72 | 1018.7 |
| 20260509011150 | 60 | 273 | 4.0 | 7.0 | 0.00 | 0.00 | 0.00 | 72 | 1018.8 |
| 20260509010650 | 60 | 292 | 4.0 | 7.0 | 0.00 | 0.00 | 0.00 | 72 | 1018.8 |
| 20260509010150 | 60 | 277 | 3.0 | 6.0 | 0.00 | 0.00 | 0.00 | 71 | 1018.8 |
| 20260509005649 | 60 | 296 | 4.0 | 6.0 | 0.00 | 0.00 | 0.00 | 71 | 1018.9 |
| 20260509005149 | 60 | 292 | 5.0 | 6.0 | 0.00 | 0.00 | 0.00 | 71 | 1018.8 |
| 20260509004650 | 60 | 324 | 3.0 | 6.0 | 0.00 | 0.00 | 0.00 | 71 | 1018.9 |
| 20260509004150 | 60 | 302 | 2.0 | 6.0 | 0.00 | 0.00 | 0.00 | 71 | 1019.0 |
| 20260509003652 | 60 | 289 | 3.0 | 8.0 | 0.00 | 0.00 | 0.00 | 70 | 1019.0 |
| 20260509003150 | 60 | 294 | 4.0 | 8.0 | 0.00 | 0.00 | 0.00 | 70 | 1019.1 |
| 20260509002649 | 60 | 282 | 4.0 | 8.0 | 0.00 | 0.00 | 0.00 | 70 | 1019.1 |
| 20260509002150 | 60 | 298 | 5.0 | 7.0 | 0.00 | 0.00 | 0.00 | 70 | 1019.0 |
| 20260509001650 | 61 | 299 | 5.0 | 8.0 | 0.00 | 0.00 | 0.00 | 70 | 1019.0 |
| 20260509001152 | 61 | 291 | 3.0 | 8.0 | 0.00 | 0.00 | 0.00 | 70 | 1019.1 |
| 20260509000650 | 61 | 299 | 5.0 | 8.0 | 0.00 | 0.00 | 0.00 | 70 | 1019.1 |
| 20260509000150 | 60 | 236 | 3.0 | 6.0 | 0.00 | 0.00 | 0.00 | 70 | 1019.2 |
| 20260508235150 | 61 | 288 | 3.0 | 8.0 | 0.00 | 0.00 | 0.00 | 69 | 1019.2 |
| 20260508234650 | 61 | 282 | 4.0 | 8.0 | 0.00 | 0.00 | 0.00 | 69 | 1019.2 |
| 20260508234152 | 61 | 305 | 5.0 | 7.0 | 0.00 | 0.00 | 0.00 | 69 | 1019.2 |
| 20260508233649 | 61 | 302 | 4.0 | 7.0 | 0.00 | 0.00 | 0.00 | 69 | 1019.2 |
| 20260508233150 | 62 | 292 | 4.0 | 7.0 | 0.00 | 0.00 | 0.00 | 69 | 1019.2 |
| 20260508232651 | 62 | 301 | 6.0 | 7.0 | 0.00 | 0.00 | 0.00 | 68 | 1019.3 |
| 20260508232150 | 62 | 263 | 5.0 | 7.0 | 0.00 | 0.00 | 0.00 | 68 | 1019.3 |
| 20260508231650 | 62 | 242 | 4.0 | 7.0 | 0.00 | 0.00 | 0.00 | 68 | 1019.3 |
| 20260508231152 | 62 | 264 | 4.0 | 7.0 | 0.00 | 0.00 | 0.00 | 69 | 1019.3 |
| 20260508230650 | 62 | 274 | 3.0 | 7.0 | 0.00 | 0.00 | 0.00 | 69 | 1019.4 |
| 20260508230150 | 62 | 264 | 4.0 | 7.0 | 0.00 | 0.00 | 0.00 | 69 | 1019.4 |
| 20260508225651 | 62 | 274 | 4.0 | 8.0 | 0.00 | 0.00 | 0.00 | 69 | 1019.4 |
| 20260508225150 | 62 | 267 | 5.0 | 8.0 | 0.00 | 0.00 | 0.00 | 69 | 1019.4 |
| 20260508224650 | 62 | 270 | 4.0 | 8.0 | 0.00 | 0.00 | 0.00 | 68 | 1019.3 |
| 20260508224152 | 62 | 235 | 4.0 | 8.0 | 0.00 | 0.00 | 0.00 | 67 | 1019.3 |
| 20260508223650 | 62 | 268 | 5.0 | 7.0 | 0.00 | 0.00 | 0.00 | 67 | 1019.2 |
| 20260508223150 | 62 | 296 | 5.0 | 9.0 | 0.00 | 0.00 | 0.00 | 67 | 1019.2 |
| 20260508222651 | 62 | 254 | 3.0 | 9.0 | 0.00 | 0.00 | 0.00 | 68 | 1019.3 |
| 20260508222150 | 62 | 261 | 5.0 | 9.0 | 0.00 | 0.00 | 0.00 | 67 | 1019.3 |
| 20260508221650 | 62 | 252 | 4.0 | 9.0 | 0.00 | 0.00 | 0.00 | 67 | 1019.3 |
| 20260508221152 | 62 | 254 | 4.0 | 9.0 | 0.00 | 0.00 | 0.00 | 67 | 1019.2 |
| 20260508220649 | 62 | 273 | 4.0 | 9.0 | 0.00 | 0.00 | 0.00 | 67 | 1019.3 |
| 20260508220151 | 62 | 210 | 4.0 | 9.0 | 0.00 | 0.00 | 0.00 | 68 | 1019.3 |
| 20260508215651 | 62 | 250 | 6.0 | 9.0 | 0.00 | 0.00 | 0.00 | 68 | 1019.3 |
| 20260508215150 | 62 | 236 | 5.0 | 9.0 | 0.00 | 0.00 | 0.00 | 68 | 1019.2 |
| 20260508214650 | 62 | 239 | 5.0 | 9.0 | 0.00 | 0.00 | 0.00 | 68 | 1019.2 |
| 20260508214152 | 62 | 249 | 7.0 | 10.0 | 0.00 | 0.00 | 0.00 | 67 | 1019.2 |
| 20260508213650 | 62 | 238 | 6.0 | 10.0 | 0.00 | 0.00 | 0.00 | 68 | 1019.2 |
| 20260508213150 | 62 | 246 | 4.0 | 10.0 | 0.00 | 0.00 | 0.00 | 67 | 1019.2 |
| 20260508212651 | 62 | 271 | 7.0 | 9.0 | 0.00 | 0.00 | 0.00 | 67 | 1019.2 |
| 20260508212150 | 62 | 242 | 4.0 | 9.0 | 0.00 | 0.00 | 0.00 | 68 | 1019.2 |
| 20260508211650 | 62 | 229 | 5.0 | 11.0 | 0.00 | 0.00 | 0.00 | 67 | 1019.2 |
| 20260508211152 | 62 | 280 | 6.0 | 11.0 | 0.00 | 0.00 | 0.00 | 67 | 1019.2 |
| 20260508210150 | 62 | 266 | 5.0 | 14.0 | 0.00 | 0.00 | 0.00 | 68 | 1019.1 |
| 20260508205651 | 62 | 252 | 6.0 | 14.0 | 0.00 | 0.00 | 0.00 | 66 | 1019.1 |
| 20260508205150 | 62 | 243 | 4.0 | 14.0 | 0.00 | 0.00 | 0.00 | 68 | 1019.0 |
| 20260508204650 | 62 | 243 | 9.0 | 12.0 | 0.00 | 0.00 | 0.00 | 68 | 1019.0 |
| 20260508204152 | 62 | 245 | 6.0 | 12.0 | 0.00 | 0.00 | 0.00 | 69 | 1019.0 |
| 20260508203651 | 62 | 254 | 5.0 | 12.0 | 0.00 | 0.00 | 0.00 | 68 | 1019.0 |
| 20260508203150 | 62 | 235 | 8.0 | 11.0 | 0.00 | 0.00 | 0.00 | 67 | 1019.0 |
| 20260508202652 | 63 | 242 | 8.0 | 13.0 | 0.00 | 0.00 | 0.00 | 67 | 1018.8 |
| 20260508202151 | 63 | 260 | 7.0 | 13.0 | 0.00 | 0.00 | 0.00 | 68 | 1018.9 |
| 20260508201650 | 63 | 245 | 7.0 | 13.0 | 0.00 | 0.00 | 0.00 | 68 | 1018.9 |
| 20260508201152 | 62 | 266 | 8.0 | 12.0 | 0.00 | 0.00 | 0.00 | 69 | 1018.8 |
| 20260508200650 | 62 | 180 | 1.0 | 12.0 | 0.00 | 0.00 | 0.00 | 69 | 1018.7 |
| 20260508200150 | 62 | 201 | 3.0 | 12.0 | 0.00 | 0.00 | 0.00 | 70 | 1018.6 |
| 20260508195651 | 61 | 233 | 5.0 | 10.0 | 0.00 | 0.00 | 0.00 | 70 | 1018.7 |
| 20260508195150 | 61 | 277 | 5.0 | 12.0 | 0.00 | 0.00 | 0.00 | 70 | 1018.8 |
| 20260508194649 | 61 | 242 | 2.0 | 12.0 | 0.00 | 0.00 | 0.00 | 71 | 1018.8 |
| 20260508194152 | 60 | 215 | 5.0 | 12.0 | 0.00 | 0.00 | 0.00 | 71 | 1018.7 |
| 20260508193650 | 61 | 259 | 6.0 | 10.0 | 0.00 | 0.00 | 0.00 | 71 | 1018.7 |
| 20260508193150 | 60 | 242 | 4.0 | 10.0 | 0.00 | 0.00 | 0.00 | 73 | 1018.6 |
| 20260508192150 | 59 | 233 | 6.0 | 10.0 | 0.00 | 0.00 | 0.00 | 71 | 1018.6 |
| 20260508191650 | 59 | 200 | 3.0 | 8.0 | 0.00 | 0.00 | 0.00 | 71 | 1018.6 |
| 20260508191152 | 59 | 217 | 3.0 | 8.0 | 0.00 | 0.00 | 0.00 | 71 | 1018.6 |
| 20260508190650 | 59 | 158 | 4.0 | 7.0 | 0.00 | 0.00 | 0.00 | 71 | 1018.6 |
| 20260508190150 | 59 | 205 | 2.0 | 10.0 | 0.00 | 0.00 | 0.00 | 72 | 1018.7 |
| 20260508185651 | 58 | 189 | 2.0 | 10.0 | 0.00 | 0.00 | 0.00 | 72 | 1018.6 |
| 20260508185150 | 58 | 208 | 3.0 | 10.0 | 0.00 | 0.00 | 0.00 | 71 | 1018.7 |
| 20260508184650 | 58 | 155 | 6.0 | 9.0 | 0.00 | 0.00 | 0.00 | 71 | 1018.7 |
| 20260508184152 | 58 | 233 | 1.0 | 11.0 | 0.00 | 0.00 | 0.00 | 72 | 1018.5 |
| 20260508183650 | 58 | 232 | 5.0 | 11.0 | 0.00 | 0.00 | 0.00 | 71 | 1018.6 |
| 20260508183150 | 58 | 205 | 4.0 | 11.0 | 0.00 | 0.00 | 0.00 | 71 | 1018.6 |
| 20260508182651 | 57 | 254 | 5.0 | 12.0 | 0.00 | 0.00 | 0.00 | 72 | 1018.5 |
| 20260508182150 | 57 | 194 | 3.0 | 12.0 | 0.00 | 0.00 | 0.00 | 72 | 1018.5 |
| 20260508181650 | 56 | 190 | 3.0 | 12.0 | 0.00 | 0.00 | 0.00 | 73 | 1018.4 |
| 20260508181152 | 56 | 187 | 5.0 | 11.0 | 0.00 | 0.00 | 0.00 | 72 | 1018.4 |
| 20260508180650 | 56 | 191 | 6.0 | 11.0 | 0.00 | 0.00 | 0.00 | 73 | 1018.5 |
| 20260508180150 | 56 | 176 | 5.0 | 10.0 | 0.00 | 0.00 | 0.00 | 73 | 1018.5 |
| 20260508175651 | 56 | 232 | 5.0 | 10.0 | 0.00 | 0.00 | 0.00 | 73 | 1018.4 |
| 20260508175150 | 55 | 182 | 4.0 | 9.0 | 0.00 | 0.00 | 0.00 | 74 | 1018.5 |
| 20260508174650 | 55 | 190 | 4.0 | 9.0 | 0.00 | 0.00 | 0.00 | 74 | 1018.4 |
| 20260508174152 | 55 | 177 | 4.0 | 11.0 | 0.00 | 0.00 | 0.00 | 74 | 1018.4 |
| 20260508173650 | 55 | 228 | 6.0 | 11.0 | 0.00 | 0.00 | 0.00 | 73 | 1018.4 |
| 20260508173150 | 55 | 197 | 4.0 | 11.0 | 0.00 | 0.00 | 0.00 | 73 | 1018.3 |
| 20260508172653 | 55 | 221 | 5.0 | 13.0 | 0.00 | 0.00 | 0.00 | 73 | 1018.3 |
| 20260508172150 | 55 | 214 | 6.0 | 13.0 | 0.00 | 0.00 | 0.00 | 73 | 1018.3 |
| 20260508171650 | 55 | 190 | 7.0 | 13.0 | 0.00 | 0.00 | 0.00 | 73 | 1018.2 |
| 20260508171152 | 55 | 203 | 7.0 | 10.0 | 0.00 | 0.00 | 0.00 | 73 | 1018.2 |
| 20260508170650 | 55 | 124 | 3.0 | 10.0 | 0.00 | 0.00 | 0.00 | 74 | 1018.2 |
| 20260508170149 | 55 | 187 | 5.0 | 7.0 | 0.00 | 0.00 | 0.00 | 74 | 1018.1 |
| 20260508165649 | 55 | 183 | 4.0 | 11.0 | 0.00 | 0.00 | 0.00 | 74 | 1018.1 |
| 20260508164650 | 55 | 176 | 1.0 | 11.0 | 0.00 | 0.00 | 0.00 | 74 | 1018.0 |
| 20260508164152 | 55 | 182 | 4.0 | 11.0 | 0.00 | 0.00 | 0.00 | 74 | 1018.0 |
| 20260508163650 | 55 | 186 | 4.0 | 11.0 | 0.00 | 0.00 | 0.00 | 74 | 1018.0 |
| 20260508163150 | 55 | 176 | 4.0 | 11.0 | 0.00 | 0.00 | 0.00 | 75 | 1018.0 |
| 20260508162651 | 55 | 221 | 2.0 | 11.0 | 0.00 | 0.00 | 0.00 | 75 | 1017.9 |
| 20260508162148 | 54 | 187 | 4.0 | 11.0 | 0.00 | 0.00 | 0.00 | 75 | 1017.9 |
| 20260508161650 | 54 | 194 | 4.0 | 9.0 | 0.00 | 0.00 | 0.00 | 75 | 1017.9 |
| 20260508161152 | 54 | 152 | 4.0 | 6.0 | 0.00 | 0.00 | 0.00 | 75 | 1017.8 |
| 20260508160650 | 54 | 196 | 1.0 | 8.0 | 0.00 | 0.00 | 0.00 | 75 | 1017.7 |
| 20260508160149 | 54 | 184 | 0.0 | 8.0 | 0.00 | 0.00 | 0.00 | 75 | 1017.7 |
| 20260508155150 | 54 | 161 | 2.0 | 8.0 | 0.00 | 0.00 | 0.00 | 75 | 1017.6 |
| 20260508154650 | 54 | 190 | 4.0 | 9.0 | 0.00 | 0.00 | 0.00 | 75 | 1017.7 |
| 20260508154152 | 54 | 196 | 2.0 | 9.0 | 0.00 | 0.00 | 0.00 | 76 | 1017.5 |
| 20260508153650 | 54 | 173 | 2.0 | 9.0 | 0.00 | 0.00 | 0.00 | 76 | 1017.5 |
| 20260508153150 | 54 | 224 | 4.0 | 8.0 | 0.00 | 0.00 | 0.00 | 76 | 1017.5 |
| 20260508152651 | 54 | 194 | 5.0 | 7.0 | 0.00 | 0.00 | 0.00 | 76 | 1017.5 |
| 20260508152150 | 54 | 162 | 4.0 | 6.0 | 0.00 | 0.00 | 0.00 | 76 | 1017.5 |
| 20260508151649 | 54 | 184 | 4.0 | 7.0 | 0.00 | 0.00 | 0.00 | 76 | 1017.4 |
| 20260508151152 | 54 | 186 | 2.0 | 7.0 | 0.00 | 0.00 | 0.00 | 76 | 1017.2 |
| 20260508150650 | 54 | 224 | 3.0 | 7.0 | 0.00 | 0.00 | 0.00 | 77 | 1017.2 |
| 20260508150149 | 53 | 172 | 3.0 | 6.0 | 0.00 | 0.00 | 0.00 | 77 | 1017.1 |
| 20260508145651 | 53 | 179 | 3.0 | 7.0 | 0.00 | 0.00 | 0.00 | 77 | 1017.0 |
| 20260508145150 | 53 | 196 | 2.0 | 7.0 | 0.00 | 0.00 | 0.00 | 78 | 1016.9 |
| 20260508144649 | 53 | 121 | 2.0 | 7.0 | 0.00 | 0.00 | 0.00 | 78 | 1016.6 |
| 20260508144152 | 53 | 154 | 3.0 | 4.0 | 0.00 | 0.00 | 0.00 | 78 | 1016.5 |
| 20260508143650 | 53 | 95 | 1.0 | 5.0 | 0.00 | 0.00 | 0.00 | 79 | 1016.6 |
| 20260508143150 | 53 | 194 | 1.0 | 5.0 | 0.00 | 0.00 | 0.00 | 79 | 1016.3 |
| 20260508142650 | 53 | 187 | 2.0 | 5.0 | 0.00 | 0.00 | 0.00 | 79 | 1016.5 |
| 20260508142150 | 53 | 161 | 0.0 | 4.0 | 0.00 | 0.00 | 0.00 | 80 | 1016.3 |
| 20260508141152 | 52 | 197 | 2.0 | 4.0 | 0.00 | 0.00 | 0.00 | 80 | 1016.2 |
| 20260508140650 | 52 | 179 | 2.0 | 4.0 | 0.00 | 0.00 | 0.00 | 80 | 1016.3 |
| 20260508140149 | 52 | 114 | 1.0 | 2.0 | 0.00 | 0.00 | 0.00 | 80 | 1016.3 |
| 20260508135650 | 52 | 133 | 0.0 | 5.0 | 0.00 | 0.00 | 0.00 | 80 | 1016.2 |
| 20260508135150 | 52 | 91 | 3.0 | 5.0 | 0.00 | 0.00 | 0.00 | 80 | 1015.9 |
| 20260508134650 | 52 | 96 | 1.0 | 5.0 | 0.00 | 0.00 | 0.00 | 80 | 1015.8 |
| 20260508134149 | 52 | 100 | 2.0 | 4.0 | 0.00 | 0.00 | 0.00 | 80 | 1016.1 |
| 20260508133649 | 52 | 95 | 2.0 | 4.0 | 0.00 | 0.00 | 0.00 | 80 | 1016.1 |
| 20260508133149 | 52 | 105 | 2.0 | 5.0 | 0.00 | 0.00 | 0.00 | 80 | 1016.1 |
| 20260508132651 | 52 | 103 | 2.0 | 5.0 | 0.00 | 0.00 | 0.00 | 80 | 1016.3 |
| 20260508132151 | 52 | 92 | 3.0 | 5.0 | 0.00 | 0.00 | 0.00 | 80 | 1016.3 |
| 20260508131649 | 52 | 117 | 4.0 | 4.0 | 0.00 | 0.00 | 0.00 | 80 | 1016.4 |
| 20260508131152 | 52 | 96 | 2.0 | 4.0 | 0.00 | 0.00 | 0.00 | 80 | 1016.4 |
| 20260508130649 | 52 | 120 | 2.0 | 4.0 | 0.00 | 0.00 | 0.00 | 80 | 1016.4 |
| 20260508130149 | 52 | 138 | 2.0 | 2.0 | 0.00 | 0.00 | 0.00 | 80 | 1016.4 |
| 20260508125650 | 52 | 140 | 0.0 | 5.0 | 0.00 | 0.00 | 0.00 | 80 | 1016.5 |
| 20260508125150 | 52 | 176 | 1.0 | 5.0 | 0.00 | 0.00 | 0.00 | 80 | 1016.6 |
| 20260508124649 | 52 | 120 | 2.0 | 5.0 | 0.00 | 0.00 | 0.00 | 81 | 1016.6 |
| 20260508124152 | 51 | 170 | 1.0 | 3.0 | 0.00 | 0.00 | 0.00 | 81 | 1016.5 |
| 20260508123649 | 51 | 141 | 2.0 | 3.0 | 0.00 | 0.00 | 0.00 | 81 | 1016.5 |
| 20260508123149 | 52 | 95 | 0.0 | 2.0 | 0.00 | 0.00 | 0.00 | 81 | 1016.5 |
| 20260508122650 | 51 | 105 | 0.0 | 5.0 | 0.00 | 0.00 | 0.00 | 81 | 1016.4 |
| 20260508122150 | 51 | 112 | 1.0 | 5.0 | 0.00 | 0.00 | 0.00 | 81 | 1016.3 |
| 20260508121650 | 51 | 96 | 1.0 | 5.0 | 0.00 | 0.00 | 0.00 | 81 | 1016.3 |
| 20260508121152 | 51 | 106 | 2.0 | 4.0 | 0.00 | 0.00 | 0.00 | 81 | 1016.4 |
| 20260508120649 | 51 | 113 | 2.0 | 4.0 | 0.00 | 0.00 | 0.00 | 81 | 1016.2 |
| 20260508120150 | 51 | 103 | 3.0 | 4.0 | 0.00 | 0.00 | 0.00 | 81 | 1016.2 |
| 20260508115650 | 51 | 109 | 3.0 | 3.0 | 0.00 | 0.00 | 0.00 | 81 | 1016.2 |
| 20260508115149 | 51 | 121 | 1.0 | 3.0 | 0.00 | 0.00 | 0.00 | 81 | 1016.2 |
| 20260508114649 | 51 | 116 | 0.0 | 4.0 | 0.00 | 0.00 | 0.00 | 81 | 1016.2 |
| 20260508114153 | 51 | 96 | 1.0 | 4.0 | 0.00 | 0.00 | 0.00 | 81 | 1016.1 |
| 20260508113649 | 51 | 123 | 2.0 | 4.0 | 0.00 | 0.00 | 0.00 | 81 | 1016.0 |
| 20260508113149 | 51 | 67 | 2.0 | 3.0 | 0.00 | 0.00 | 0.00 | 82 | 1016.0 |
| 20260508112650 | 50 | 95 | 1.0 | 4.0 | 0.00 | 0.00 | 0.00 | 81 | 1016.1 |
| 20260508112150 | 50 | 102 | 1.0 | 4.0 | 0.00 | 0.00 | 0.00 | 81 | 1016.0 |
| 20260508111649 | 51 | 102 | 2.0 | 4.0 | 0.00 | 0.00 | 0.00 | 81 | 1015.9 |
| 20260508111151 | 50 | 109 | 1.0 | 5.0 | 0.00 | 0.00 | 0.00 | 81 | 1015.7 |
| 20260508110649 | 51 | 124 | 2.0 | 5.0 | 0.00 | 0.00 | 0.00 | 81 | 1015.6 |
| 20260508110150 | 51 | 102 | 3.0 | 5.0 | 0.00 | 0.00 | 0.00 | 81 | 1015.7 |
| 20260508105650 | 51 | 120 | 2.0 | 5.0 | 0.00 | 0.00 | 0.00 | 81 | 1015.6 |
| 20260508105150 | 51 | 100 | 3.0 | 4.0 | 0.00 | 0.00 | 0.00 | 81 | 1015.7 |
| 20260508104649 | 51 | 77 | 2.0 | 4.0 | 0.00 | 0.00 | 0.00 | 81 | 1015.8 |
| 20260508104151 | 51 | 98 | 2.0 | 4.0 | 0.00 | 0.00 | 0.00 | 81 | 1015.8 |
| 20260508103649 | 50 | 92 | 1.0 | 4.0 | 0.00 | 0.00 | 0.00 | 82 | 1015.8 |
| 20260508102650 | 50 | 95 | 1.0 | 6.0 | 0.00 | 0.00 | 0.00 | 82 | 1015.7 |
| 20260508102150 | 50 | 89 | 3.0 | 6.0 | 0.00 | 0.00 | 0.00 | 82 | 1015.6 |
| 20260508101649 | 50 | 89 | 3.0 | 5.0 | 0.00 | 0.00 | 0.00 | 82 | 1015.6 |
| 20260508101246 | 50 | 127 | 2.0 | 4.0 | 0.00 | 0.00 | 0.00 | 82 | 1015.6 |
| 20260508101151 | 50 | 127 | 2.0 | 4.0 | 0.00 | 0.00 | 0.00 | 82 | 1015.6 |
| 20260508100649 | 50 | 96 | 3.0 | 6.0 | 0.00 | 0.00 | 0.00 | 81 | 1015.5 |
| 20260508100149 | 50 | 120 | 1.0 | 6.0 | 0.00 | 0.00 | 0.00 | 81 | 1015.4 |
| 20260508095650 | 50 | 105 | 3.0 | 6.0 | 0.00 | 0.00 | 0.00 | 81 | 1015.3 |
| 20260508095149 | 50 | 99 | 3.0 | 6.0 | 0.00 | 0.00 | 0.00 | 81 | 1015.3 |
| 20260508094649 | 50 | 95 | 3.0 | 6.0 | 0.00 | 0.00 | 0.00 | 82 | 1015.4 |
| 20260508094151 | 50 | 92 | 2.0 | 5.0 | 0.00 | 0.00 | 0.00 | 82 | 1015.4 |
| 20260508093649 | 50 | 107 | 3.0 | 6.0 | 0.00 | 0.00 | 0.00 | 82 | 1015.3 |
| 20260508093149 | 50 | 89 | 5.0 | 6.0 | 0.00 | 0.00 | 0.00 | 82 | 1015.3 |
| 20260508092650 | 50 | 120 | 3.0 | 6.0 | 0.00 | 0.00 | 0.00 | 82 | 1015.3 |
| 20260508092149 | 49 | 113 | 5.0 | 5.0 | 0.00 | 0.00 | 0.00 | 82 | 1015.2 |
| 20260508091649 | 49 | 100 | 2.0 | 5.0 | 0.00 | 0.00 | 0.00 | 82 | 1015.2 |
| 20260508091151 | 49 | 99 | 2.0 | 5.0 | 0.00 | 0.00 | 0.00 | 82 | 1015.3 |
| 20260508090150 | 49 | 102 | 4.0 | 6.0 | 0.00 | 0.00 | 0.00 | 82 | 1015.0 |
| 20260508085650 | 49 | 109 | 4.0 | 6.0 | 0.00 | 0.00 | 0.00 | 82 | 1015.0 |
| 20260508085149 | 49 | 106 | 2.0 | 6.0 | 0.00 | 0.00 | 0.00 | 82 | 1015.0 |
| 20260508084649 | 49 | 95 | 4.0 | 6.0 | 0.00 | 0.00 | 0.00 | 82 | 1015.0 |
| 20260508084151 | 49 | 114 | 3.0 | 6.0 | 0.00 | 0.00 | 0.00 | 81 | 1015.0 |
| 20260508083649 | 49 | 91 | 3.0 | 6.0 | 0.00 | 0.00 | 0.00 | 81 | 1014.8 |
| 20260508083149 | 49 | 98 | 3.0 | 6.0 | 0.00 | 0.00 | 0.00 | 81 | 1014.8 |
| 20260508082650 | 49 | 91 | 4.0 | 6.0 | 0.00 | 0.00 | 0.00 | 81 | 1014.8 |
| 20260508082149 | 48 | 92 | 4.0 | 5.0 | 0.00 | 0.00 | 0.00 | 82 | 1014.7 |
| 20260508081649 | 48 | 107 | 3.0 | 5.0 | 0.00 | 0.00 | 0.00 | 81 | 1014.7 |
| 20260508081151 | 48 | 113 | 4.0 | 5.0 | 0.00 | 0.00 | 0.00 | 81 | 1014.6 |
| 20260508080649 | 48 | 102 | 4.0 | 5.0 | 0.00 | 0.00 | 0.00 | 81 | 1014.6 |
| 20260508080149 | 48 | 100 | 3.0 | 6.0 | 0.00 | 0.00 | 0.00 | 81 | 1014.5 |
| 20260508075650 | 48 | 91 | 3.0 | 6.0 | 0.00 | 0.00 | 0.00 | 81 | 1014.6 |
| 20260508075149 | 48 | 100 | 4.0 | 6.0 | 0.00 | 0.00 | 0.00 | 81 | 1014.7 |
| 20260508074649 | 48 | 91 | 3.0 | 5.0 | 0.00 | 0.00 | 0.00 | 81 | 1014.8 |
| 20260508074151 | 48 | 92 | 3.0 | 5.0 | 0.00 | 0.00 | 0.00 | 81 | 1014.8 |
| 20260508073649 | 48 | 121 | 3.0 | 5.0 | 0.00 | 0.00 | 0.00 | 81 | 1014.7 |
| 20260508073149 | 48 | 112 | 3.0 | 5.0 | 0.00 | 0.00 | 0.00 | 81 | 1014.6 |
| 20260508072650 | 48 | 100 | 3.0 | 5.0 | 0.00 | 0.00 | 0.00 | 81 | 1014.6 |
| 20260508072149 | 48 | 110 | 3.0 | 5.0 | 0.00 | 0.00 | 0.00 | 80 | 1014.6 |
| 20260508071649 | 48 | 119 | 3.0 | 5.0 | 0.00 | 0.00 | 0.00 | 80 | 1014.6 |
| 20260508071151 | 48 | 116 | 1.0 | 5.0 | 0.00 | 0.00 | 0.00 | 80 | 1014.6 |
| 20260508070649 | 48 | 107 | 3.0 | 5.0 | 0.00 | 0.00 | 0.00 | 80 | 1014.6 |
| 20260508070149 | 48 | 103 | 3.0 | 4.0 | 0.00 | 0.00 | 0.00 | 80 | 1014.5 |
| 20260508065650 | 48 | 91 | 2.0 | 4.0 | 0.00 | 0.00 | 0.00 | 80 | 1014.6 |
| 20260508065149 | 48 | 105 | 3.0 | 5.0 | 0.00 | 0.00 | 0.00 | 80 | 1014.6 |
| 20260508064649 | 48 | 105 | 3.0 | 5.0 | 0.00 | 0.00 | 0.00 | 80 | 1014.6 |
| 20260508064151 | 48 | 102 | 4.0 | 5.0 | 0.00 | 0.00 | 0.00 | 80 | 1014.5 |
| 20260508063650 | 48 | 123 | 4.0 | 5.0 | 0.00 | 0.00 | 0.00 | 80 | 1014.5 |
| 20260508063151 | 49 | 106 | 3.0 | 5.0 | 0.00 | 0.00 | 0.00 | 79 | 1014.5 |
| 20260508062650 | 48 | 105 | 3.0 | 5.0 | 0.00 | 0.00 | 0.00 | 79 | 1014.5 |
| 20260508062149 | 49 | 103 | 3.0 | 5.0 | 0.00 | 0.00 | 0.00 | 79 | 1014.5 |
| 20260508061649 | 49 | 98 | 3.0 | 4.0 | 0.00 | 0.00 | 0.00 | 79 | 1014.4 |
| 20260508061151 | 49 | 105 | 3.0 | 3.0 | 0.00 | 0.00 | 0.00 | 79 | 1014.4 |
| 20260508060649 | 49 | 110 | 3.0 | 4.0 | 0.00 | 0.00 | 0.00 | 79 | 1014.4 |
| 20260508060149 | 49 | 107 | 2.0 | 4.0 | 0.00 | 0.00 | 0.00 | 78 | 1014.4 |
| 20260508055650 | 49 | 99 | 2.0 | 4.0 | 0.00 | 0.00 | 0.00 | 78 | 1014.4 |
| 20260508055149 | 49 | 96 | 3.0 | 3.0 | 0.00 | 0.00 | 0.00 | 78 | 1014.3 |
| 20260508054649 | 50 | 119 | 3.0 | 3.0 | 0.00 | 0.00 | 0.00 | 78 | 1014.3 |
| 20260508054151 | 50 | 103 | 2.0 | 3.0 | 0.00 | 0.00 | 0.00 | 78 | 1014.3 |
| 20260508053649 | 50 | 89 | 2.0 | 2.0 | 0.00 | 0.00 | 0.00 | 77 | 1014.3 |
| 20260508053149 | 50 | 105 | 2.0 | 5.0 | 0.00 | 0.00 | 0.00 | 77 | 1014.3 |
| 20260508052650 | 50 | 120 | 2.0 | 5.0 | 0.00 | 0.00 | 0.00 | 77 | 1014.3 |
| 20260508052150 | 50 | 96 | 3.0 | 5.0 | 0.00 | 0.00 | 0.00 | 77 | 1014.3 |
| 20260508051650 | 50 | 106 | 3.0 | 5.0 | 0.00 | 0.00 | 0.00 | 77 | 1014.3 |
| 20260508051151 | 50 | 91 | 3.0 | 5.0 | 0.00 | 0.00 | 0.00 | 77 | 1014.3 |
| 20260508050649 | 51 | 310 | 1.0 | 5.0 | 0.00 | 0.00 | 0.00 | 77 | 1014.3 |
| 20260508050149 | 51 | 12 | 1.0 | 5.0 | 0.00 | 0.00 | 0.00 | 76 | 1014.4 |
| 20260508045650 | 51 | 112 | 1.0 | 3.0 | 0.00 | 0.00 | 0.00 | 76 | 1014.5 |
| 20260508045149 | 51 | 22 | 0.0 | 3.0 | 0.00 | 0.00 | 0.00 | 76 | 1014.5 |
| 20260508044649 | 51 | 337 | 1.0 | 3.0 | 0.00 | 0.00 | 0.00 | 76 | 1014.5 |
| 20260508044151 | 51 | 99 | 1.0 | 2.0 | 0.00 | 0.00 | 0.00 | 76 | 1014.5 |
| 20260508043649 | 52 | 95 | 0.0 | 2.0 | 0.00 | 0.00 | 0.00 | 75 | 1014.5 |
| 20260508043149 | 52 | 29 | 1.0 | 2.0 | 0.00 | 0.00 | 0.00 | 75 | 1014.4 |
| 20260508042650 | 52 | 93 | 1.0 | 2.0 | 0.00 | 0.00 | 0.00 | 75 | 1014.4 |
| 20260508042149 | 52 | 102 | 0.0 | 2.0 | 0.00 | 0.00 | 0.00 | 75 | 1014.3 |
| 20260508041649 | 52 | 99 | 1.0 | 5.0 | 0.00 | 0.00 | 0.00 | 75 | 1014.4 |
| 20260508041151 | 52 | 327 | 0.0 | 5.0 | 0.00 | 0.00 | 0.00 | 75 | 1014.3 |
| 20260508040650 | 53 | 343 | 2.0 | 5.0 | 0.00 | 0.00 | 0.00 | 75 | 1014.3 |
| 20260508040149 | 53 | 350 | 1.0 | 10.0 | 0.00 | 0.00 | 0.00 | 75 | 1014.2 |
| 20260508035652 | 53 | 12 | 3.0 | 10.0 | 0.00 | 0.00 | 0.00 | 74 | 1014.3 |
| 20260508035149 | 53 | 344 | 1.0 | 10.0 | 0.00 | 0.00 | 0.00 | 74 | 1014.3 |
| 20260508034649 | 53 | 331 | 3.0 | 9.0 | 0.00 | 0.00 | 0.00 | 74 | 1014.2 |
| 20260508034151 | 53 | 5 | 3.0 | 9.0 | 0.00 | 0.00 | 0.00 | 74 | 1014.1 |
| 20260508033649 | 54 | 313 | 4.0 | 9.0 | 0.00 | 0.00 | 0.00 | 74 | 1014.0 |
| 20260508033149 | 54 | 324 | 7.0 | 12.0 | 0.00 | 0.00 | 0.00 | 74 | 1014.1 |
| 20260508032151 | 54 | 317 | 6.0 | 12.0 | 0.00 | 0.00 | 0.00 | 73 | 1014.0 |
| 20260508031649 | 54 | 322 | 6.0 | 12.0 | 0.00 | 0.00 | 0.00 | 73 | 1014.0 |
| 20260508031151 | 54 | 327 | 8.0 | 12.0 | 0.00 | 0.00 | 0.00 | 73 | 1014.0 |
| 20260508030649 | 54 | 316 | 6.0 | 12.0 | 0.00 | 0.00 | 0.00 | 73 | 1013.9 |
| 20260508030148 | 54 | 315 | 6.0 | 12.0 | 0.00 | 0.00 | 0.00 | 73 | 1013.8 |
| 20260508025651 | 54 | 331 | 7.0 | 13.0 | 0.00 | 0.00 | 0.00 | 73 | 1013.8 |
| 20260508025149 | 55 | 341 | 5.0 | 13.0 | 0.00 | 0.00 | 0.00 | 72 | 1013.8 |
| 20260508024649 | 55 | 310 | 6.0 | 13.0 | 0.00 | 0.00 | 0.00 | 72 | 1013.8 |